sat.trackr.live / text

‹ back to catalog

STARLINK-37203

NORAD 68388 · 2026-063J

PAYLOAD ACTIVE UNKNOWN

§ Identity

Operator
Country
US
Launch date
2026-03-26
Launch site
AFWTR
Launch vehicle
Mass (kg)
RCS (m²)

Purposes: comms

External: N2YO · Heavens-Above · Gunter

§ Orbital elements

Epoch: 2026-09-20T02:59:04.557984Z

Period
93.91 min
Inclination
97.2832°
Eccentricity
0.0001133
Mean motion
15.33435064 rev/d
Perigee alt
464.8 km
Apogee alt
466.3 km
Semi-major
6,843.7 km
B*
1.9950e-4
RAAN
44.0304°
Arg perigee
104.5176°
Mean anomaly
255.6193°
Rev number
2,769

§ Raw data

STARLINK-372031 68388U 26063J   26263.12435831  .00006369  00000+0  19950-3 0  99962 68388  97.2832  44.0304 0001133 104.5176 255.6193 15.33435064 27692

JSON: /api/v1/satellites/68388 · /tle

For live sub-satellite position, see the globe view (requires WebGL).

§ Visibility from observer

Set your observer location to see the next 7 days of passes ≥ 10°. The values pass through the URL so the page stays shareable.

No JS? Fill the form by hand. The geolocation button needs JavaScript.